This is the latest recevied weather packets stored in our database for station/object KFLP. If no packets are shown the sender has not sent any weather packets the latest 1 day(s).
| Time | Temp. | Humidity | Pressure | Rain* | Wind** | Luminosity | Snow |
|---|---|---|---|---|---|---|---|
| 1778024011 | 12.78° C | 93% | 1008.1 hPa | - | 1.34 m/s, 360° | - | - |
| 1778023412 | 12.78° C | 93% | 1007.8 hPa | - | 5.81 m/s, 10° | - | - |
| 1778022811 | 12.78° C | 93% | 1007.8 hPa | - | 5.81 m/s, 10° | - | - |
| 1778022328 | 12.78° C | 93% | 1007.8 hPa | - | 5.81 m/s, 10° | - | - |
| 1778021613 | 13.89° C | 100% | 1007.1 hPa | - | 4.47 m/s, 360° | - | - |
| 1778021008 | 13.89° C | 100% | 1007.1 hPa | - | 4.47 m/s, 360° | - | - |
| 1778020409 | 13.89° C | 100% | 1007.1 hPa | - | 4.47 m/s, 360° | - | - |
| 1778019808 | 13.89° C | 100% | 1007.1 hPa | - | 4.47 m/s, 360° | - | - |
| 1778019209 | 13.89° C | 100% | 1007.1 hPa | - | 4.47 m/s, 360° | - | - |
| 1778018730 | 13.89° C | 100% | 1007.1 hPa | - | 4.47 m/s, 360° | - | - |
| 1778018012 | 15° C | 93% | 1006.8 hPa | - | 2.68 m/s, 20° | - | - |
| 1778017412 | 15° C | 93% | 1006.8 hPa | - | 2.68 m/s, 20° | - | - |
| 1778016812 | 13.89° C | 100% | 1007.1 hPa | - | 4.92 m/s, 20° | - | - |
| 1778016208 | 15° C | 93% | 1006.4 hPa | - | 2.68 m/s, 40° | - | - |
| 1778015610 | 15° C | 93% | 1006.4 hPa | - | 2.68 m/s, 40° | - | - |
| 1778015010 | 15° C | 93% | 1006.4 hPa | - | 2.68 m/s, 40° | - | - |
| 1778014408 | 15° C | 93% | 1006.1 hPa | - | 3.58 m/s, 50° | - | - |
| 1778013812 | 15.56° C | 100% | 1006.8 hPa | - | 5.36 m/s, 10° | - | - |
| 1778013210 | 15.56° C | 100% | 1006.8 hPa | - | 5.36 m/s, 10° | - | - |
| 1778012614 | 15.56° C | 100% | 1006.8 hPa | - | 5.36 m/s, 10° | - | - |
| 1778012009 | 16.67° C | 100% | 1006.8 hPa | - | 1.79 m/s, 30° | - | - |
| 1778011408 | 16.67° C | 100% | 1006.8 hPa | - | 1.79 m/s, 30° | - | - |
| 1778010811 | 17.78° C | 93% | 1006.4 hPa | - | 2.68 m/s, 50° | - | - |
| 1778010211 | 17.78° C | 93% | 1006.4 hPa | - | 2.68 m/s, 50° | - | - |
| 1778009608 | 17.78° C | 93% | 1006.4 hPa | - | 2.24 m/s, 20° | - | - |
* Rain since midnight (hover to see other rain measurements)
** Current wind speed in m/s (hover to see current wind gust speed)